This is the latest recevied weather packets stored in our database for station/object PY2XH-13. If no packets are shown the sender has not sent any weather packets the latest 10 day(s).
| Time | Temp. | Humidity | Pressure | Rain* | Wind** | Luminosity | Snow |
|---|---|---|---|---|---|---|---|
| 1777722364 | 23.33° C | 65% | 1034.1 hPa | - | - | - | - |
| 1777720564 | 22.22° C | 69% | 1034.3 hPa | - | - | - | - |
| 1777718764 | 22.22° C | 70% | 1033.8 hPa | - | - | - | - |
| 1777716964 | 23.33° C | 67% | 1033.4 hPa | - | - | - | - |
| 1777715164 | 22.78° C | 68% | 1032.6 hPa | - | - | - | - |
| 1777713364 | 23.33° C | 68% | 1032.4 hPa | - | - | - | - |
| 1777711564 | 23.33° C | 69% | 1031.9 hPa | - | - | - | - |
| 1777709764 | 23.89° C | 69% | 1031.4 hPa | - | - | - | - |
| 1777707964 | 23.89° C | 70% | 1031.1 hPa | - | - | - | - |
| 1777706164 | 23.89° C | 71% | 1031.2 hPa | - | - | - | - |
| 1777704365 | 23.89° C | 71% | 1031.2 hPa | - | - | - | - |
| 1777702564 | 23.89° C | 71% | 1031.1 hPa | - | - | - | - |
| 1777700764 | 23.89° C | 71% | 1031.2 hPa | - | - | - | - |
| 1777698964 | 23.89° C | 71% | 1031.4 hPa | - | - | - | - |
| 1777697164 | 23.89° C | 71% | 1031.7 hPa | - | - | - | - |
| 1777695365 | 23.89° C | 71% | 1031.8 hPa | - | - | - | - |
| 1777693565 | 23.89° C | 71% | 1032.1 hPa | - | - | - | - |
| 1777691765 | 23.89° C | 72% | 1032.4 hPa | - | - | - | - |
| 1777689964 | 23.89° C | 72% | 1032.7 hPa | - | - | - | - |
| 1777688164 | 23.89° C | 72% | 1032.9 hPa | - | - | - | - |
| 1777686364 | 23.89° C | 72% | 1033.1 hPa | - | - | - | - |
| 1777684564 | 23.89° C | 72% | 1033.2 hPa | - | - | - | - |
| 1777682765 | 23.89° C | 73% | 1033.5 hPa | - | - | - | - |
| 1777680965 | 23.89° C | 72% | 1033.7 hPa | - | - | - | - |
| 1777679165 | 23.89° C | 72% | 1033.6 hPa | - | - | - | - |
* Rain since midnight (hover to see other rain measurements)
** Current wind speed in m/s (hover to see current wind gust speed)